Regional Weather Roundup
Issued by NWS Northern Indiana

Home | Current Version | Previous Version | Text Only | Print | Product List | Glossary Off
Versions: 1 2 3 4 5 6 7 8 9 10 11 12 13 14 15 16 17 18 19 20 21 22 23 24 25 26 27 28 29 30 31 32 33 34 35 36 37 38 39 40 41 42 43 44 45 46 47 48 49 50

907
ASUS43 KIWX 260010
RWRIWX

KIWX WEATHER ROUNDUP
NATIONAL WEATHER SERVICE NORTHERN INDIANA
700 PM EST SAT FEB 25 2017

NOTE: "FAIR" INDICATES FEW OR NO CLOUDS BELOW 12,000 FEET WITH NO
SIGNIFICANT WEATHER AND/OR OBSTRUCTIONS TO VISIBILITY.

* THESE STATIONS ARE NOT UNDER NWS QUALITY CONTROL. THEY ALSO MAY NOT
  REPORT WEATHER SUCH AS PRECIPITATION OR FOG.

INZ001>027-260100-
NORTHERN INDIANA

CITY           SKY/WX    TMP DP  RH WIND       PRES   REMARKS
GARY*          MOCLDY    28  14  54 W14G26    29.98R WCI  17
VALPARAISO     CLOUDY    28  17  63 W15       29.97R WCI  16
6HR MIN TEMP:  26; 6HR MAX TEMP:  32;

MICHIGAN CITY* CLOUDY    27  16  63 W12G17    29.97R WCI  16
LAPORTE*       FLURRIES  26  17  68 NW9       29.96R WCI  16
6HR MIN TEMP:  24; 6HR MAX TEMP:  27;

KNOX*          CLOUDY    28  -4  24 NW17      29.97R WCI  16
SOUTH BEND     FLURRIES  24  17  74 W10       29.95R WCI  14
6HR MIN TEMP:  23; 6HR MAX TEMP:  26; 6HR PCP: TRACE;

GOSHEN         CLOUDY    25  15  66 W12       29.94R WCI  14
6HR MIN TEMP:  25; 6HR MAX TEMP:  27; 6HR PCP: TRACE;

MONTICELLO*    CLOUDY    28  17  64 W20       29.99R WCI  15
6HR MIN TEMP:  26; 6HR MAX TEMP:  32;

LOGANSPORT*    CLOUDY    30  18  59 W16G22    29.99R WCI  19
ROCHESTER*     MOCLDY    30  18  59 W10       29.96R WCI  21
WARSAW*        FLURRIES  27  16  63 W14G21    29.94R WCI  15
ANGOLA*        CLOUDY    25  19  80 W13       29.91R WCI  13
FORT WAYNE     FLURRIES  27  18  69 W18G30    29.94R WCI  14
6HR MIN TEMP:  27; 6HR MAX TEMP:  29; 6HR PCP: TRACE;

HUNTINGTON*    CLOUDY    28  17  65 W9        29.95R WCI  19
6HR MIN TEMP:  25; 6HR MAX TEMP:  28;

PERU/GRISSOM   CLOUDY    29  18  63 W15       29.95R WCI  18
6HR MIN TEMP:  26; 6HR MAX TEMP:  29; 6HR PCP: TRACE;

MARION*        CLOUDY    28  21  75 W22       29.98R WCI  14
6HR MIN TEMP:  -6; 6HR MAX TEMP:  89;


$$
INZ028>050-260100-
CENTRAL INDIANA

CITY           SKY/WX    TMP DP  RH WIND       PRES   REMARKS
LAFAYETTE      CLOUDY    29  18  63 W16       30.01R WCI  17
6HR MIN TEMP:  25; 6HR MAX TEMP:  29; 6HR PCP: TRACE;

MUNCIE*        CLOUDY    30  17  58 W17G24    29.97R WCI  18
6HR MIN TEMP:  27; 6HR MAX TEMP:  30; 6HR PCP: TRACE;

INDIANAPOLIS   PTCLDY    30  15  53 W15       30.00R WCI  19
6HR MIN TEMP:  28; 6HR MAX TEMP:  33; 6HR PCP: TRACE;


$$
MIZ043>046-050>051-056>058-064>065-071>073-077>080-260100-
SOUTHWEST LOWER MICHIGAN

CITY           SKY/WX    TMP DP  RH WIND       PRES   REMARKS
BATTLE CREEK   LGT SNOW  22  17  81 W16       29.91R WCI   8
6HR MIN TEMP:  22; 6HR MAX TEMP:  27; 6HR PCP: TRACE;

BENTON HARBOR  CLOUDY    25  15  66 W14G24    29.95R WCI  13
6HR MIN TEMP:  24; 6HR MAX TEMP:  26; 6HR PCP: TRACE;

COLDWATER*     FLURRIES  24  19  81 NW15      29.91R WCI  12
6HR MIN TEMP:  24; 6HR MAX TEMP:  27;

HILLSDALE*     LGT SNOW  23  19  86 W10G17    29.87R WCI  12
HOLLAND        LGT SNOW  24  15  68 W14       29.93R WCI  12
6HR MIN TEMP:  23; 6HR MAX TEMP:  25; 6HR PCP: TRACE;

GRAND RAPIDS   FLURRIES  23  16  74 W14       29.89R WCI  11
6HR MIN TEMP:  22; 6HR MAX TEMP:  27; 6HR PCP:  0.01;

KALAMAZOO      LGT SNOW  22  15  75 W9        29.92R WCI  12
6HR MIN TEMP:  22; 6HR MAX TEMP:  26; 6HR PCP: TRACE;

STURGIS*       FLURRIES  23  17  78 W10G18    29.92R WCI  12
6HR MIN TEMP:  23; 6HR MAX TEMP:  26;

THREE RIVERS*  FLURRIES  24  17  75 W9G17     29.93R WCI  14
6HR MIN TEMP:  24; 6HR MAX TEMP:  26;


$$
OHZ001>008-015>018-024>025-260100-
NORTHWEST OHIO

CITY           SKY/WX    TMP DP  RH WIND       PRES   REMARKS
WAUSEON*       CLOUDY    27  16  63 W16G25    29.91R WCI  14
DEFIANCE       CLOUDY    26  17  68 W7        29.94R WCI  18
6HR MIN TEMP:  24; 6HR MAX TEMP:  29; 6HR PCP: TRACE;

FINDLAY        CLOUDY    28  16  60 W20G31    29.92R WCI  15
6HR MIN TEMP:  27; 6HR MAX TEMP:  33; 6HR PCP: TRACE;

TOLEDO EXPRESS CLOUDY    26  17  68 W23G29    29.91R WCI  11
6HR MIN TEMP:  26; 6HR MAX TEMP:  32; 6HR PCP: TRACE;

TOLEDO METCALF LGT SNOW  27  20  75 W18       29.92R WCI  14
6HR MIN TEMP:  27; 6HR MAX TEMP:  34; 6HR PCP: TRACE;

LIMA           FLURRIES  26  19  74 W25       29.94R WCI  11
6HR MIN TEMP:  26; 6HR MAX TEMP:  30; 6HR PCP: TRACE;


$$
AND FOR LAKE MICHIGAN COASTAL AND OPEN LAKE BUOY OBSERVATIONS

STATION/POSITION TEMP    WIND        PRES    VSBY  WAVE
                 AIR SEA DIR/SP/G                  HT/PER
                 (F)     (DEG/KT/KT) (MB)    (MI)  (FT/S)
CALUMET HARBOR    26     260/  5/ 12 1014.3R
MICHIGAN CITY     26     260/ 22/ 23   N/A
BURNS HARBOR      27     300/ 15/ 20 1015.2R
SAINT JOSEPH      27     280/ 16/ 21 1015.2

$$
&&




USA.gov is the U.S. government's official web portal to all federal, state and local government web resources and services.